Location: Hewitt Place
(34.5653°N, 106.3453°W)
Time: 14:46:28
(UTC+00:00)

Daily predictions for brighter satellites

Satellite Brightness Start Highest point End
(mag) Time Altitude Azimuth Time Altitude Azimuth Time Altitude Azimuth
Cosmos 1812 2.5 12:12:01 76° WSW 12:12:01 76° WSW 12:15:47 10° S
Cosmos 1151 Rocket 2.9 12:10:05 29° N 12:12:17 89° ENE 12:16:39 10° S
Cosmos 1503 Rocket 4.0 12:11:21 10° SSW 12:16:30 58° WNW 12:21:45 10° N
Okean 3 Rocket 3.6 12:16:45 10° SSW 12:21:12 60° W 12:25:42 10° N
ATLAS 5 CENTAUR R/B 1.0 12:20:01 23° SSW 12:22:17 88° WNW 12:26:18 10° NNE
Cosmos 1766 Rocket 3.7 12:19:01 10° SSW 12:23:11 47° W 12:27:22 10° N
Cosmos 1777 Rocket 4.3 12:18:22 10° S 12:23:32 69° ESE 12:28:44 10° NNE
SAR-Lupe-3 4.4 12:21:30 10° N 12:25:04 71° WNW 12:28:39 10° SSW
BREEZE-M DEB 2.6 12:31:18 42° WSW 12:32:10 71° NW 12:38:00 10° NE
Cosmos 1328 Rocket 3.4 12:31:09 11° NNW 12:35:22 71° W 12:39:40 10° S
Cosmos 2180 Rocket 4.4 12:30:28 10° N 12:36:38 90° ENE 12:42:46 10° S
H-2A R/B 3.4 12:42:13 29° WNW 12:42:13 29° WNW 12:45:29 10° SW
Meteor 2-6 Rocket 4.1 12:38:21 10° NNW 12:43:37 57° W 12:48:54 10° S
SL-4 R/B 2.6 12:40:40 10° SSW 12:43:58 47° SE 12:47:28 10° ENE
COSMO-SKYMED 1 2.6 12:39:54 10° S 12:44:10 59° W 12:48:28 10° NNW
Meteor 1-31 Rocket 3.1 12:40:40 10° N 12:44:22 42° WNW 12:48:03 10° SW
Envisat 3.5 12:43:04 10° N 12:47:41 36° WNW 12:52:18 10° SW
MOS 1-B Rocket 4.4 12:42:57 10° S 12:49:03 43° W 12:54:34 10° NNW
Cosmos 1833 4.2 12:46:00 10° NNW 12:51:40 69° WSW 12:57:22 10° S
Cosmos 1174 3.7 12:51:49 21° WSW 12:53:11 33° WNW 12:55:57 10° N
Cosmos 1408 Rocket 3.7 12:51:14 10° SSW 12:55:20 46° W 12:59:29 10° N
DNEPR-1 R/B 4.3 12:53:22 14° NW 12:57:44 58° WSW 13:03:54 10° SSE
Cosmos 2369 Rocket 4.0 13:03:39 11° NW 13:03:39 11° NW 13:04:25 10° NW
Cosmos 1743 Rocket 3.5 13:00:59 10° SSW 13:05:22 73° W 13:09:44 10° N
Landsat 5 4.1 13:04:26 10° S 13:08:43 42° W 13:12:59 10° NNW
ATLAS 3B R/B 2.7 13:02:38 10° SW 13:08:59 57° NW 13:15:38 10° NNE
CZ-4C R/B 3.0 13:06:52 10° S 13:09:53 44° W 13:12:54 10° NNW
SJ 16-02 1.9 13:10:30 10° SW 13:14:29 34° WNW 13:18:29 10° N
Cosmos 1602 3.7 13:11:06 10° S 13:14:54 90° E 13:18:43 10° N
Cosmos 2228 Rocket 4.0 13:10:37 10° N 13:15:02 54° E 13:19:29 10° SSE
COSMOS 2487 3.8 13:11:58 10° N 13:15:07 37° ENE 13:18:14 10° SE
DELTA 2 R/B (1) 4.0 13:10:34 12° WNW 13:15:29 51° N 13:20:53 10° E
CZ-2C R/B 3.5 13:12:04 10° SSW 13:16:53 31° W 13:21:39 10° NW
Lacrosse 5 3.3 13:13:27 10° SSW 13:18:13 42° ESE 13:23:01 10° NE
IRAS Rocket 4.2 13:13:56 10° SSE 13:19:26 79° WSW 13:24:57 10° NNW
Cosmos 1515 Rocket 4.0 13:15:37 10° NNW 13:19:40 40° W 13:23:42 10° SSW
FALCON 9 R/B 3.8 13:04:38 11° WNW 13:25:31 69° SSW 13:31:13 10° ESE
NOAA 12 4.1 13:20:58 10° N 13:26:10 63° WNW 13:31:18 10° SSW
FengYun 1-2 T 4.2 13:27:03 10° N 13:32:31 71° WNW 13:37:58 10° SSW
Cosmos 1500 Rocket 4.3 13:29:05 10° SW 13:33:03 31° WNW 13:37:03 10° NNW
PSLV R/B 4.4 13:29:17 10° NNE 13:33:16 65° ESE 13:37:16 10° S
USA 215 3.5 13:28:15 10° SE 13:34:43 70° NE 13:41:13 10° NW
Cosmos 1500 3.1 13:31:41 10° S 13:35:29 79° W 13:39:17 10° N
CORIOLIS 4.3 13:30:11 10° NNE 13:35:39 86° ESE 13:41:05 10° SSW
